Weather Roundup
Issued by NWS Chicago, IL

Home | Current Version | Previous Version | Graphics & Text | Print | Product List | Glossary On
Versions: 1 2 3 4 5 6 7 8 9 10 11 12 13 14 15 16 17 18 19 20 21 22 23 24 25 26 27 28 29 30 31 32 33 34 35 36 37 38 39 40 41 42 43 44 45 46 47 48 49 50
000
NZUS59 KLOT 061458
HRRLOT

CHICAGO AREA WEATHER ROUNDUP
NATIONAL WEATHER SERVICE CHICAGO/ROMEOVILLE IL
900 AM CST FRI MAR 06 2015

NOTE: "FAIR" INDICATES FEW OR NO CLOUDS BELOW 12,000 FEET WITH NO
SIGNIFICANT WEATHER AND/OR OBSTRUCTIONS TO VISIBILITY.

* THESE STATIONS ARE NOT UNDER NWS QUALITY CONTROL. THEY ALSO MAY NOT
  REPORT WEATHER SUCH AS PRECIPITATION OR FOG.

ILZ005-006-012>014-019>023-061600-
NORTHEAST ILLINOIS

CITY           SKY/WX    TMP DP  RH WIND       PRES   REMARKS
OHARE          PTSUNNY   12   1  61 SW18G24   30.40F WCI  -6
MIDWAY         NOT AVBL
AURORA         SUNNY      8   0  69 S13       30.41F WCI  -8
WAUKEGAN       NOT AVBL
DUPAGE AIRPORT SUNNY      9   0  67 S15       30.40F WCI  -8
WHEELING       SUNNY     14   1  56 SW13      30.41F WCI   0
NORTHERLY IS     N/A     13   0  56 S16         N/A  WCI  -3
$$

WIZ051-052-058>065-066-070>072-061600-
SOUTHEAST WISCONSIN

CITY           SKY/WX    TMP DP  RH WIND       PRES   REMARKS
MILWAUKEE      PTSUNNY   10  -2  58 SW22G29   30.33F WCI -10
KENOSHA*       SUNNY     12   1  61 SW15G21   30.35F WCI  -4
WAUKESHA       SUNNY      9  -2  61 S13       30.32F WCI  -7
$$

INZ001>003-010>013-019-020-061600-
NORTHWEST INDIANA

CITY           SKY/WX    TMP DP  RH WIND       PRES   REMARKS
GARY*          MOSUNNY   12  -2  52 S10       30.47S WCI  -1
MICHIGAN CITY* NOT AVBL
RENSSELAER*    NOT AVBL
$$

LMZ740>746-061600-
SOUTHERN LAKE MICHIGAN

STATION/POSITION TIME  SKY/WX   TEMP WIND        PRES    VSBY
                                AIR  DIR/SP/G
                 (UTC)          (F)  (DEG/KT/KT) (MB)    (MI)
HARRISON CRIB    1400            10  210/ 20/ 24   N/A
BURNHAM HARBOR   1400            12  170/  8/ 14   N/A
CALUMET HARBOR   1400            11  190/ 10/ 16 1029.7F
BURNS HARBOR     NOT AVBL
MICHIGAN CITY    1400             6  170/ 12/ 14   N/A
$$

ABBREVIATIONS USED IN REMARKS
   TC - TEMPERATURE IN CELSIUS
  WCI - WIND CHILL INDEX
   HX - HEAT INDEX
  VSB - VISIBILITY
$$


USA.gov is the U.S. government's official web portal to all federal, state and local government web resources and services.